[[{"header":{"parameterUnit":"m.s-1","parameterCategory":1,"la1":30.2991,"la2":30.254,"lo1":-89.0895,"lo2":-89.0444,"dy":0.0017,"dx":0.0017,"nx":28,"ny":28,"refTime":"2024-05-30T21:00:00:Z","depth":0,"parameterNumber":2,"parameterNumberName":"U-component_of_WINDS"},"data":[0,0,0,0,0,0,0,0,0,0,0,0,0,0,0,0,0,0,0,0,0,0,0,0,0,0,0,0,0,0,0,0,0,0,0,0,0,0,0,0,0,0,0,0,0,0,0,0,0,0,0,0,0,0,0,0,0,0,-2.3994,-2.3995,0,-2.4073,-2.4074,-2.4075,-2.4102,-2.4102,-2.4101,-2.4101,-2.418,-2.4182,-2.4185,0,0,0,0,0,0,0,0,0,0,0,0,0,-2.3865,-2.3867,-2.3994,-2.3995,-2.3996,-2.4073,-2.4074,-2.4075,-2.4102,-2.4102,-2.4101,-2.4101,-2.4179,-2.4182,-2.4185,0,0,0,0,0,0,0,0,0,0,0,0,0,-2.393,-2.3868,-2.3994,-2.4019,-2.4022,-2.4073,-2.4074,-2.4075,-2.4102,-2.4102,-2.4101,-2.4101,-2.4178,-2.4182,-2.4185,-2.4216,0,0,-2.4196,-2.4198,0,0,0,0,0,0,0,0,-2.3926,-2.3935,-2.4014,-2.4017,-2.4021,-2.4077,-2.4057,-2.4123,-2.4102,-2.4071,-2.4101,-2.41,-2.4146,-2.4152,-2.4168,-2.422,-2.4224,-2.4196,-2.4199,-2.42,-2.4201,0,0,0,0,0,0,0,-2.3922,-2.3931,-2.4025,-2.4015,-2.4019,-2.4025,-2.4034,-2.407,-2.411,-2.4074,-2.4076,-2.4085,-2.4148,-2.4164,-2.417,-2.4225,-2.4196,-2.4199,-2.4202,-2.4203,-2.4307,-2.4307,0,0,0,0,0,0,-2.3913,-2.3927,-2.4023,-2.4028,-2.3971,-2.4028,-2.4038,-2.4059,-2.411,-2.4117,-2.4086,-2.4086,-2.4158,-2.4166,-2.4173,-2.4213,-2.42,-2.4203,-2.4205,-2.4306,-2.4307,-2.4308,0,0,0,0,0,0,-2.391,-2.3921,-2.4019,-2.3978,-2.3991,-2.4031,-2.4055,-2.4061,-2.4078,-2.4119,-2.4126,-2.4096,-2.4158,-2.4168,-2.4206,-2.4216,-2.4205,-2.4208,-2.4305,-2.4306,-2.4307,-2.4293,0,0,0,0,0,0,-2.3907,-2.392,-2.3933,-2.3978,-2.3993,-2.4051,-2.4055,-2.4063,-2.4084,-2.4086,-2.413,-2.4137,-2.4159,-2.42,-2.4209,-2.4221,-2.4211,-2.4305,-2.4306,-2.4307,-2.4293,-2.4293,-2.4294,0,0,0,0,0,-2.3902,-2.3925,-2.3933,-2.3945,-2.401,-2.4052,-2.406,-2.4086,-2.4085,-2.4098,-2.4124,-2.4135,-2.4214,-2.4204,-2.4214,-2.4227,-2.4304,-2.4306,-2.4307,-2.4292,-2.4293,-2.4294,0,0,0,0,0,0,-2.3879,-2.3932,-2.3941,-2.398,-2.4011,-2.4056,-2.4073,-2.4086,-2.4118,-2.4118,-2.4148,-2.4157,-2.4193,-2.4214,-2.4202,-2.426,-2.4259,-2.4263,-2.4245,-2.4246,-2.4246,-2.424,-2.4214,0,0,0,0,0,-2.3879,-2.3909,-2.3953,-2.3983,-2.3998,-2.4033,-2.4052,-2.4069,-2.4103,-2.4116,-2.4145,-2.4176,-2.4208,-2.4228,-2.426,-2.4296,-2.4306,-2.431,-2.4311,-2.4311,-2.4313,-2.4334,-2.4336,-2.4312,-2.4312,-2.4312,0,0,-2.3878,-2.391,-2.3928,-2.3979,-2.4006,-2.4036,-2.4044,-2.4075,-2.4098,-2.4121,-2.4158,-2.4181,-2.4218,-2.4255,-2.4273,-2.4273,-2.4322,-2.4313,-2.4312,-2.4315,-2.4336,-2.4338,-2.434,-2.4313,-2.4313,-2.4313,0,0,-2.3892,-2.392,-2.3948,-2.3974,-2.4014,-2.4038,-2.4044,-2.4088,-2.4104,-2.4142,-2.416,-2.4187,-2.4241,-2.4266,-2.4287,-2.4311,-2.4322,-2.4321,-2.4323,-2.4343,-2.4345,-2.4347,-2.4355,-2.4358,-2.4323,-2.4323,-2.4323,0,-2.3886,-2.3933,-2.3961,-2.3992,-2.4014,-2.4036,-2.4065,-2.4089,-2.4137,-2.4151,-2.4152,-2.422,-2.4247,-2.4291,-2.4297,-2.4312,-2.4321,-2.4315,-2.4343,-2.4345,-2.4347,-2.4355,-2.4358,-2.4323,-2.4323,-2.4323,-2.4323,0,-2.3923,-2.3955,-2.3973,-2.4019,-2.4044,-2.4073,-2.4105,-2.4126,-2.4141,-2.4164,-2.4203,-2.4236,-2.4274,-2.4286,-2.4301,-2.4332,-2.4331,-2.4337,-2.4337,-2.4348,-2.4356,-2.436,-2.4322,-2.4322,-2.4322,-2.4322,0,0,-2.3924,-2.3986,-2.3992,-2.4014,-2.406,-2.4085,-2.4115,-2.4154,-2.4171,-2.4204,-2.423,-2.4275,-2.4281,-2.4304,-2.4322,-2.4339,-2.4357,-2.4343,-2.4344,-2.4344,-2.4392,-2.4388,-2.4391,-2.4365,-2.4365,-2.4366,-2.4389,0,-2.3944,-2.4,-2.4026,-2.407,-2.41,-2.4122,-2.4149,-2.418,-2.4202,-2.423,-2.4255,-2.4287,-2.4292,-2.4306,-2.4324,-2.435,-2.4367,-2.4349,-2.4388,-2.439,-2.4378,-2.4395,-2.439,-2.441,-2.4393,-2.4393,-2.4394,0,-2.3974,-2.4007,-2.4054,-2.4097,-2.4111,-2.4134,-2.4172,-2.4199,-2.4234,-2.4249,-2.4275,-2.4293,-2.4325,-2.4323,-2.4368,-2.4356,-2.4374,-2.4389,-2.4391,-2.4395,-2.4392,-2.4399,-2.4417,-2.442,-2.4399,-2.4399,-2.4398,0,-2.397,-2.4026,-2.4062,-2.4079,-2.413,-2.4146,-2.4168,-2.4203,-2.4225,-2.4258,-2.4272,-2.4308,-2.4327,-2.4354,-2.4381,-2.4377,-2.4423,-2.4424,-2.4436,-2.4435,-2.4444,-2.4443,-2.4465,-2.4456,-2.4456,-2.4456,-2.4456,0,-2.3989,-2.4016,-2.406,-2.4082,-2.4114,-2.4144,-2.4175,-2.4198,-2.4229,-2.4256,-2.4277,-2.4302,-2.4336,-2.4364,-2.4385,-2.4419,-2.4428,-2.444,-2.4446,-2.4438,-2.4437,-2.445,-2.4449,-2.4457,-2.4457,-2.4457,-2.4457,0,-2.3989,-2.402,-2.406,-2.4105,-2.4117,-2.4138,-2.4177,-2.4199,-2.4223,-2.4256,-2.4265,-2.4302,-2.4337,-2.4367,-2.4412,-2.4426,-2.4461,-2.4468,-2.4449,-2.4452,-2.4462,-2.4461,-2.4493,-2.4498,-2.4487,-2.4487,-2.4487,0,-2.3999,-2.4021,-2.4069,-2.4088,-2.411,-2.4141,-2.4163,-2.4194,-2.4216,-2.4259,-2.4275,-2.4312,-2.4342,-2.4397,-2.4427,-2.4462,-2.4469,-2.4478,-2.4474,-2.4466,-2.4469,-2.4467,-2.4469,-2.4478,-2.4478,-2.4478,-2.4478,0,-2.4013,-2.4027,-2.4059,-2.4096,-2.4122,-2.4152,-2.4183,-2.4198,-2.4234,-2.4258,-2.4294,-2.4318,-2.4365,-2.44,-2.4439,-2.4461,-2.4475,-2.4479,-2.4484,-2.4476,-2.4464,-2.447,-2.4449,-2.4478,-2.4478,-2.4478,-2.4478,-2.4478,-2.4018,-2.4039,-2.4076,-2.411,-2.4137,-2.4165,-2.4188,-2.4215,-2.4246,-2.4287,-2.4303,-2.434,-2.4375,-2.4428,-2.445,-2.4479,-2.4481,-2.4488,-2.449,-2.4491,-2.4489,-2.446,-2.4486,-2.4486,-2.4486,-2.4486,-2.4486,0,-2.4033,-2.4058,-2.4089,-2.4132,-2.4159,-2.4172,-2.4207,-2.4228,-2.4261,-2.4292,-2.4322,-2.4364,-2.4399,-2.4432,-2.4469,-2.4486,-2.4493,-2.4494,-2.4493,-2.4498,-2.4485,-2.4478,-2.4487,-2.4487,-2.4487,-2.4487,-2.4487,-2.4487,-2.4044,-2.4079,-2.4098,-2.4147,-2.4172,-2.4208,-2.4227,-2.4254,-2.4279,-2.4325,-2.4354,-2.4376,-2.4409,-2.4448,-2.448,-2.4489,-2.4502,-2.4501,-2.4511,-2.4499,-2.4499,-2.4498,-2.4491,-2.4503,-2.4503,-2.4521,-2.4521,-2.4521]},{"header":{"parameterUnit":"m.s-1","parameterCategory":1,"la1":30.2991,"la2":30.254,"lo1":-89.0895,"lo2":-89.0444,"dy":0.0017,"dx":0.0017,"nx":28,"ny":28,"refTime":"2024-05-30T21:00:00:Z","depth":0,"parameterNumber":3,"parameterNumberName":"V-component_of_WINDS"},"data":[0,0,0,0,0,0,0,0,0,0,0,0,0,0,0,0,0,0,0,0,0,0,0,0,0,0,0,0,0,0,0,0,0,0,0,0,0,0,0,0,0,0,0,0,0,0,0,0,0,0,0,0,0,0,0,0,0,0,5.4882,5.4882,0,5.4885,5.4885,5.4885,5.4796,5.4794,5.4792,5.4789,5.4791,5.4793,5.4796,0,0,0,0,0,0,0,0,0,0,0,0,0,5.4798,5.48,5.4882,5.4882,5.4882,5.4885,5.4885,5.4885,5.4797,5.4794,5.4791,5.4788,5.479,5.4793,5.4796,0,0,0,0,0,0,0,0,0,0,0,0,0,5.4821,5.4801,5.4882,5.4838,5.4834,5.4885,5.4885,5.4885,5.4797,5.4794,5.479,5.4787,5.479,5.4793,5.4796,5.4888,0,0,5.4806,5.4808,0,0,0,0,0,0,0,0,5.482,5.4824,5.4845,5.4841,5.4837,5.4837,5.4856,5.4886,5.4798,5.4811,5.4789,5.4785,5.4809,5.4811,5.4819,5.4888,5.4888,5.4807,5.4809,5.481,5.4811,0,0,0,0,0,0,0,5.4818,5.4824,5.4883,5.4845,5.4841,5.4818,5.4817,5.4861,5.483,5.481,5.4804,5.4805,5.4806,5.4816,5.4818,5.4888,5.4807,5.481,5.4812,5.4813,5.5032,5.5035,0,0,0,0,0,0,5.4823,5.4823,5.4883,5.4883,5.482,5.4823,5.4822,5.484,5.4829,5.4824,5.4808,5.4801,5.4812,5.4814,5.4818,5.4924,5.481,5.4813,5.4815,5.5028,5.5032,5.5037,0,0,0,0,0,0,5.4822,5.4829,5.4883,5.4851,5.4856,5.4828,5.4849,5.4842,5.4852,5.4828,5.4822,5.4824,5.4809,5.4813,5.4871,5.4923,5.4815,5.4818,5.5023,5.5029,5.5035,5.5137,0,0,0,0,0,0,5.482,5.4829,5.4864,5.4853,5.4858,5.4936,5.4852,5.4845,5.4858,5.4849,5.4841,5.4836,5.4807,5.4867,5.4874,5.4925,5.4821,5.5019,5.5026,5.5033,5.5129,5.5146,5.516,0,0,0,0,0,5.4817,5.4893,5.4866,5.4874,5.4901,5.494,5.4943,5.4907,5.4863,5.4897,5.4882,5.4837,5.4916,5.4873,5.4881,5.4934,5.5015,5.5024,5.5032,5.5122,5.5142,5.516,0,0,0,0,0,0,5.491,5.489,5.4861,5.4935,5.494,5.4925,5.4967,5.493,5.4947,5.4938,5.4893,5.4892,5.4957,5.4951,5.4904,5.5022,5.4958,5.4968,5.5023,5.5042,5.5057,5.5057,5.4823,0,0,0,0,0,5.494,5.4973,5.4953,5.5021,5.5025,5.4996,5.5011,5.4984,5.4986,5.4988,5.4976,5.4981,5.5006,5.5024,5.5046,5.5128,5.5125,5.5169,5.5184,5.5197,5.5206,5.5249,5.5268,5.5065,5.5065,5.5064,0,0,5.5,5.4994,5.5017,5.504,5.504,5.5074,5.4998,5.5038,5.5063,5.4993,5.5047,5.504,5.5041,5.5111,5.5141,5.5108,5.5262,5.5208,5.5218,5.522,5.5259,5.5279,5.5296,5.507,5.5069,5.5068,0,0,5.5128,5.5127,5.5183,5.5185,5.5187,5.5167,5.5181,5.5171,5.5163,5.5217,5.5165,5.5194,5.524,5.5243,5.525,5.5381,5.5339,5.5389,5.547,5.5511,5.5527,5.5541,5.5587,5.5604,5.5399,5.5399,5.5399,0,5.5203,5.5254,5.5216,5.526,5.5271,5.521,5.5266,5.527,5.5279,5.5288,5.5251,5.5307,5.5303,5.5373,5.5405,5.5413,5.5427,5.5389,5.5528,5.5542,5.5554,5.5597,5.5615,5.5405,5.5404,5.5404,5.5403,0,5.5346,5.5382,5.5427,5.5438,5.5454,5.5504,5.5473,5.5494,5.5465,5.5449,5.5504,5.5499,5.5519,5.5533,5.5506,5.5599,5.5579,5.5536,5.547,5.558,5.562,5.5636,5.5414,5.5412,5.541,5.5408,0,0,5.5532,5.5522,5.5539,5.5543,5.554,5.5567,5.5614,5.5634,5.5653,5.5661,5.5699,5.5739,5.5699,5.5708,5.568,5.5717,5.582,5.567,5.5669,5.5697,5.5922,5.5954,5.5974,5.5793,5.5796,5.5799,5.5922,0,5.5656,5.5735,5.5703,5.5785,5.5818,5.5761,5.5802,5.5804,5.5791,5.5816,5.5801,5.583,5.5776,5.5781,5.5815,5.5801,5.5865,5.5791,5.5827,5.5829,5.5828,5.5995,5.6028,5.6145,5.5937,5.594,5.5942,0,5.5811,5.5826,5.5912,5.5904,5.5916,5.5953,5.5969,5.5994,5.5996,5.5984,5.5994,5.5958,5.6003,5.5939,5.5999,5.595,5.5963,5.5958,5.5962,5.5963,5.5891,5.6,5.6181,5.6198,5.5966,5.5964,5.5962,0,5.5937,5.5979,5.6036,5.6041,5.6033,5.6061,5.6058,5.6057,5.6071,5.6085,5.6094,5.6113,5.6123,5.6138,5.6108,5.6064,5.6173,5.6106,5.6164,5.6165,5.6188,5.6187,5.6374,5.6198,5.6198,5.6198,5.6198,0,5.6078,5.6133,5.6092,5.6127,5.6186,5.6148,5.6208,5.62,5.6199,5.6231,5.6183,5.6214,5.6173,5.6199,5.6176,5.623,5.6235,5.6226,5.6219,5.623,5.6231,5.6237,5.6228,5.6202,5.6201,5.6201,5.62,0,5.6229,5.6204,5.6262,5.625,5.6248,5.6293,5.6282,5.6313,5.6297,5.6338,5.6345,5.632,5.6349,5.6321,5.6348,5.6332,5.6404,5.6386,5.6404,5.6398,5.6457,5.6452,5.6653,5.6677,5.6488,5.649,5.6491,0,5.632,5.6361,5.6353,5.6372,5.6373,5.6402,5.6417,5.6381,5.6398,5.6404,5.6434,5.6459,5.6477,5.6527,5.651,5.6531,5.6512,5.6581,5.6515,5.6524,5.6512,5.651,5.6513,5.6594,5.6597,5.6599,5.66,0,5.6484,5.647,5.6493,5.6512,5.6531,5.6544,5.6553,5.6571,5.6534,5.6555,5.6584,5.6599,5.6627,5.6652,5.6668,5.6665,5.6627,5.6621,5.6636,5.6647,5.6655,5.6651,5.644,5.6617,5.6615,5.6614,5.6613,5.6612,5.6607,5.6641,5.6641,5.6668,5.6672,5.6681,5.671,5.6698,5.6722,5.6742,5.672,5.6756,5.6756,5.6774,5.6775,5.6803,5.6773,5.6794,5.6799,5.6805,5.6813,5.6652,5.6806,5.6805,5.6805,5.6804,5.6804,0,5.6769,5.6766,5.6792,5.6806,5.6828,5.679,5.6799,5.6819,5.6851,5.6855,5.6874,5.6908,5.6933,5.6919,5.6939,5.6964,5.6947,5.6971,5.6968,5.6968,5.6839,5.6824,5.6984,5.6984,5.6984,5.6984,5.6984,5.6984,5.6855,5.691,5.6896,5.6951,5.6948,5.6983,5.6991,5.7,5.7003,5.7043,5.7063,5.7054,5.7051,5.7071,5.7092,5.7087,5.7097,5.7127,5.7116,5.6995,5.6977,5.696,5.6946,5.7129,5.713,5.7243,5.7244,5.7244]}]]